Location: Cruquius
(52.3348°N, 4.6319°E)
Time: 19:53:21
(UTC+00:00)

Cosmos 44 - Pass Details

Date: 12 May 2021
Orbit: 571 x 791 km, 65.1° (Epoch: 20 June)

Event Time Altitude Azimuth Distance (km) Brightness Sun altitude
Rises 20:36:44 0° 316° (NW) 3,296 9.3 -9.1°
Reaches altitude 10° 20:39:15 10° 322° (NW) 2,366 7.7 -9.4°
Maximum altitude 20:44:35 51° 38° (NE) 981 4.1 -9.9°
Enters shadow 20:49:39 11° 114° (ESE) 2,255 5.4 -10.4°
